{"data":{"norad_id":56051,"intl_designator":"2023-043F","name":"ONEWEB-0549","alt_names":[],"object_type":"PAYLOAD","status":"ACTIVE","operator":null,"country":"UK","launch_date":"2023-03-26","launch_site_code":"SRILR","launch_vehicle":null,"mission":null,"orbit_class":"UNKNOWN","rcs_meters":null,"size_class":null,"mass_kg":null,"dimensions":null,"purposes":["comms"],"wikipedia_slug":null,"has_3d_model":false,"image_url":null,"decayed_at":null,"tle_current":{"epoch":"2026-09-20T03:58:21.472320Z","epoch_age_seconds":47249,"freshness":"FRESH","line1":"1 56051U 23043F   26263.16552630  .00000078  00000+0  15667-3 0  9998","line2":"2 56051  87.9280 225.0731 0001734  75.2185 284.9141 13.21827807170776","mean_motion":13.21827807,"eccentricity":0.0001734,"inclination_deg":87.928,"raan_deg":225.0731,"arg_perigee_deg":75.2185,"mean_anomaly_deg":284.9141,"bstar":0.00015667,"rev_number":17077,"period_min":108.94005954287,"perigee_km":1176.4362920018,"apogee_km":1179.0566723934,"semimajor_km":7555.8834821976,"source":"CELESTRAK","updated_at":"2026-09-20T09:00:44.787411Z"}}}